Location: Ripley
(48.3812°N, 115.4473°W)
Time: 19:42:50
(UTC+00:00)

RS-15 - Pass Details

Date: 07 July 2022
Orbit: 1881 x 2163 km, 64.8° (Epoch: 19 August)

Event Time Altitude Azimuth Distance (km) Brightness Sun altitude
Rises 09:04:31 0° 317° (NW) 5,694 10.9 -16.9°
Reaches altitude 10° 09:10:14 10° 297° (WNW) 4,663 10.1 -16.6°
Maximum altitude 09:15:58 15° 268° (W) 4,220 9.6 -16.3°
Drops below altitude 10° 09:21:39 10° 239° (WSW) 4,570 9.5 -15.9°
Enters shadow 09:21:56 10° 238° (WSW) 4,606 9.5 -15.9°
